TimeCDT,TemperatureF,Dew PointF,Humidity,Sea Level PressureIn,VisibilityMPH,Wind Direction,Wind SpeedMPH,Gust SpeedMPH,PrecipitationIn,Events,Conditions,WindDirDegrees,DateUTC
12:15 AM,68.5,64.4,87,29.95,7.0,SE,3.5,-,N/A,,Clear,140,2013-05-19 05:15:00
12:35 AM,68.2,64.4,88,29.94,7.0,ESE,3.5,-,N/A,,Clear,110,2013-05-19 05:35:00
12:55 AM,68.0,64.4,88,29.95,7.0,Calm,Calm,-,N/A,,Clear,0,2013-05-19 05:55:00
1:15 AM,67.3,64.4,90,29.93,7.0,Calm,Calm,-,N/A,,Clear,0,2013-05-19 06:15:00
1:35 AM,67.1,64.4,91,29.93,7.0,ESE,4.6,-,N/A,,Clear,110,2013-05-19 06:35:00
1:55 AM,66.6,64.2,92,29.93,5.0,SE,3.5,-,N/A,,Clear,130,2013-05-19 06:55:00
2:15 AM,66.7,64.4,92,29.93,5.0,Calm,Calm,-,N/A,,Clear,0,2013-05-19 07:15:00
2:35 AM,66.6,64.4,93,29.93,5.0,ESE,3.5,-,N/A,,Clear,120,2013-05-19 07:35:00
2:55 AM,66.6,64.4,93,29.93,5.0,ESE,3.5,-,N/A,,Clear,110,2013-05-19 07:55:00
3:15 AM,66.2,64.4,94,29.93,5.0,Calm,Calm,-,N/A,,Clear,0,2013-05-19 08:15:00
3:35 AM,66.4,64.4,93,29.92,5.0,ESE,3.5,-,N/A,,Scattered Clouds,110,2013-05-19 08:35:00
3:55 AM,66.7,64.6,93,29.92,5.0,ESE,3.5,-,N/A,,Mostly Cloudy,110,2013-05-19 08:55:00
4:15 AM,67.1,64.6,92,29.93,5.0,ESE,3.5,-,N/A,,Overcast,120,2013-05-19 09:15:00
4:35 AM,67.1,64.8,92,29.93,5.0,ESE,3.5,-,N/A,,Overcast,120,2013-05-19 09:35:00
4:55 AM,67.3,64.8,92,29.93,5.0,Calm,Calm,-,N/A,,Mostly Cloudy,0,2013-05-19 09:55:00
5:15 AM,67.5,64.8,91,29.93,5.0,Calm,Calm,-,N/A,,Mostly Cloudy,0,2013-05-19 10:15:00
5:35 AM,67.1,64.8,92,29.93,5.0,ESE,3.5,-,N/A,,Scattered Clouds,120,2013-05-19 10:35:00
5:55 AM,67.6,65.3,92,29.93,5.0,Calm,Calm,-,N/A,,Mostly Cloudy,0,2013-05-19 10:55:00
6:15 AM,67.5,65.1,92,29.91,4.0,ESE,4.6,-,N/A,,Scattered Clouds,110,2013-05-19 11:15:00
6:35 AM,67.5,65.3,93,29.92,4.0,ESE,3.5,-,N/A,,Clear,120,2013-05-19 11:35:00
6:55 AM,68.4,65.7,91,29.92,4.0,SE,4.6,-,N/A,,Scattered Clouds,130,2013-05-19 11:55:00
7:15 AM,68.9,65.8,90,29.91,4.0,SE,5.8,-,N/A,,Scattered Clouds,130,2013-05-19 12:15:00
7:35 AM,70.7,66.4,86,29.92,5.0,SE,5.8,-,N/A,,Haze,140,2013-05-19 12:35:00
7:55 AM,71.6,66.9,85,29.91,7.0,SE,6.9,-,N/A,,Clear,130,2013-05-19 12:55:00
8:15 AM,72.7,67.8,85,29.91,7.0,SE,4.6,-,N/A,,Scattered Clouds,130,2013-05-19 13:15:00
8:35 AM,73.9,68.5,83,29.91,7.0,ESE,4.6,-,N/A,,Scattered Clouds,120,2013-05-19 13:35:00
8:55 AM,74.7,69.3,83,29.93,7.0,SSE,6.9,-,N/A,,Clear,160,2013-05-19 13:55:00
9:15 AM,75.4,69.4,82,29.93,7.0,SE,6.9,-,N/A,,Scattered Clouds,140,2013-05-19 14:15:00
9:35 AM,76.5,70.2,81,29.93,5.0,SE,3.5,-,N/A,,Haze,130,2013-05-19 14:35:00
9:55 AM,78.6,71.2,78,29.92,5.0,SE,6.9,-,N/A,,Haze,140,2013-05-19 14:55:00
10:15 AM,78.3,71.2,79,29.91,7.0,SE,8.1,-,N/A,,Scattered Clouds,130,2013-05-19 15:15:00
10:35 AM,79.9,72.0,77,29.92,5.0,SSE,8.1,-,N/A,,Haze,150,2013-05-19 15:35:00
10:55 AM,80.8,72.7,76,29.92,5.0,SE,8.1,-,N/A,,Haze,130,2013-05-19 15:55:00
11:15 AM,82.4,73.0,73,29.93,7.0,SE,8.1,-,N/A,,Scattered Clouds,130,2013-05-19 16:15:00
11:35 AM,81.9,73.0,74,29.94,7.0,South,6.9,-,N/A,,Mostly Cloudy,180,2013-05-19 16:35:00
11:55 AM,82.8,73.8,74,29.93,7.0,South,11.5,-,N/A,,Overcast,190,2013-05-19 16:55:00
12:15 PM,84.2,73.4,70,29.91,7.0,South,10.4,16.1,N/A,,Scattered Clouds,170,2013-05-19 17:15:00
12:35 PM,84.9,73.4,68,29.89,7.0,SSE,8.1,-,N/A,,Clear,160,2013-05-19 17:35:00
12:55 PM,85.1,72.9,67,29.88,7.0,South,11.5,16.1,N/A,,Clear,190,2013-05-19 17:55:00
1:15 PM,86.0,72.7,64,29.88,7.0,SSE,9.2,-,N/A,,Scattered Clouds,160,2013-05-19 18:15:00
1:35 PM,86.5,72.9,64,29.88,7.0,South,9.2,-,N/A,,Mostly Cloudy,190,2013-05-19 18:35:00
1:55 PM,86.4,72.3,63,29.87,7.0,South,6.9,-,N/A,,Mostly Cloudy,170,2013-05-19 18:55:00
2:15 PM,88.3,72.3,59,29.86,7.0,SSE,8.1,-,N/A,,Scattered Clouds,160,2013-05-19 19:15:00
2:35 PM,88.5,71.8,57,29.86,10.0,SSE,8.1,-,N/A,,Scattered Clouds,160,2013-05-19 19:35:00
2:55 PM,88.3,71.8,58,29.85,10.0,SSE,10.4,-,N/A,,Scattered Clouds,160,2013-05-19 19:55:00
3:15 PM,89.2,71.1,55,29.84,10.0,SSE,12.7,18.4,N/A,,Clear,160,2013-05-19 20:15:00
3:35 PM,90.0,72.0,55,29.83,10.0,SSE,10.4,18.4,N/A,,Scattered Clouds,150,2013-05-19 20:35:00
3:55 PM,89.6,71.6,55,29.82,10.0,South,10.4,18.4,N/A,,Scattered Clouds,170,2013-05-19 20:55:00
4:15 PM,89.4,70.9,54,29.82,7.0,SSE,10.4,18.4,N/A,,Clear,160,2013-05-19 21:15:00
4:35 PM,89.4,71.2,55,29.81,10.0,South,13.8,18.4,N/A,,Clear,170,2013-05-19 21:35:00
4:55 PM,88.7,71.4,56,29.81,10.0,SE,11.5,16.1,N/A,,Scattered Clouds,140,2013-05-19 21:55:00
5:15 PM,89.6,71.6,55,29.81,10.0,SSE,9.2,-,N/A,,Scattered Clouds,150,2013-05-19 22:15:00
5:35 PM,89.8,72.1,56,29.80,10.0,South,13.8,19.6,N/A,,Scattered Clouds,180,2013-05-19 22:35:00
5:55 PM,88.0,71.4,58,29.80,10.0,South,15.0,19.6,N/A,,Clear,180,2013-05-19 22:55:00
6:15 PM,88.2,71.4,57,29.79,10.0,South,12.7,19.6,N/A,,Clear,180,2013-05-19 23:15:00
6:35 PM,87.8,71.2,58,29.79,10.0,South,12.7,-,N/A,,Clear,180,2013-05-19 23:35:00
6:55 PM,86.7,70.7,59,29.79,10.0,SSE,11.5,16.1,N/A,,Clear,160,2013-05-19 23:55:00
7:15 PM,85.6,70.0,59,29.80,10.0,South,9.2,-,N/A,,Clear,170,2013-05-20 00:15:00
7:35 PM,84.7,70.0,61,29.80,10.0,South,12.7,-,N/A,,Clear,170,2013-05-20 00:35:00
7:55 PM,83.5,70.0,64,29.81,10.0,SSE,8.1,-,N/A,,Clear,160,2013-05-20 00:55:00
8:15 PM,82.6,69.8,65,29.81,10.0,SSE,10.4,-,N/A,,Clear,160,2013-05-20 01:15:00
8:35 PM,81.9,68.9,65,29.82,10.0,South,9.2,-,N/A,,Clear,170,2013-05-20 01:35:00
8:55 PM,81.1,68.4,65,29.83,10.0,SSE,6.9,-,N/A,,Clear,150,2013-05-20 01:55:00
9:15 PM,80.6,68.0,65,29.83,10.0,SSE,8.1,-,N/A,,Clear,160,2013-05-20 02:15:00
9:35 PM,79.7,68.5,69,29.84,10.0,SSE,6.9,-,N/A,,Clear,150,2013-05-20 02:35:00
9:55 PM,79.2,68.9,71,29.84,10.0,SSE,9.2,-,N/A,,Clear,160,2013-05-20 02:55:00
10:15 PM,79.0,68.7,71,29.85,10.0,South,10.4,-,N/A,,Clear,170,2013-05-20 03:15:00
10:35 PM,78.8,68.4,70,29.84,10.0,South,10.4,17.3,N/A,,Clear,170,2013-05-20 03:35:00
10:55 PM,79.2,68.0,69,29.84,10.0,South,10.4,19.6,N/A,,Clear,170,2013-05-20 03:55:00
11:15 PM,78.8,67.6,68,29.85,10.0,South,11.5,18.4,N/A,,Clear,180,2013-05-20 04:15:00
11:35 PM,78.8,67.6,68,29.86,10.0,South,12.7,19.6,N/A,,Clear,190,2013-05-20 04:35:00
11:55 PM,78.1,67.8,71,29.86,10.0,South,11.5,-,N/A,,Clear,190,2013-05-20 04:55:00